カタログに戻る

STARLINK-33700

運用中通信VLEO
NORAD 63484·PAYLOAD·🇺🇸 United States

打ち上げ Apr 6, 2025 から Cape Canaveral Space Force Station

Loading…

次のパス (今後24時間)

TLE

最新Source: CelesTrak SupGP

元期: Sep 15, 2026, 02:21 UTC

1 63484C 25070AA  26258.09840278 -.00005759  00000+0 -20849-3 0  2581
2 63484  43.0029 270.0078 0001301 259.9247 152.4183 15.27597673    19

AllMySatでSTARLINK-33700をリアルタイム追跡

Download on the App Store